Погода Саран-Пауль

Погода Саран-Пауль : погода сейчас, прогноз погоды и архив. Всё, что Вы хотите узнать о погоде Саран-Пауль!

Хотите узнать прогноз погоды Саран-Пауль? Тогда Вам сюда: Погода Саран-Пауль

Поиск расширенной информации на нашем сайте:

Другие новости

Новости СМИ2

Главная страница сайта

Новости сайта

02.10.2013

Напоминаем, что на нашем новом сайте вы можете получить высокодетализированные прогнозы погоды по пунктам России, СНГ и мира (включающие важные для авиации метеовеличины, такие как направление и скорость ветра, видимость, явления погоды, количество и форма облачности, нижняя и верхняя граница облачности), а также ознакомиться с разнообразными материалами по авиационной метеорологии и подборкой полезных ссылок на эту тему.

Сайт Метеоцентр.Азия посвящён разработке технологий оптимизации авиаметеорологического обслуживания, включая проектирование и перспективное создание нескольких автоматизированных авиаметеорологических систем:
- система выпуска высокодетальных прогностических карт явлений погоды для нижнего воздушного пространства по России и ближнему зарубежью;
- система верификации прогнозов TAF (выпускаемых синоптиками официальных АМСГ РФ и ближнего зарубежья) и AUTOTAF (выпускаемых сайтом Метеоцентр.Азия) - выявление ошибок, онлайн-сопоставление с фактической погодой METAR, автоматическое внесение коррективов в прогнозы при резком отклонении фактической погоды от прогноза, подсчёт оправдываемости прогнозов по элементам и в целом;
- система обработки, анализа и отображения авиаметеорологической информации для применения провайдерами метеорологической информации.

Рекомендуем: производство дверей клин на сайте klinskiedveri.ru

Погода Саран-Пауль - сегодня

Время (UTC), дата Ветер
(°,м/с) 
Видим.   Явления Облачность Т
(°С)
Тd
(°С)
f(%) Тe
(°С)
Pmin
(гПа)
dP
(гПа)
Po
(мм)
O2
(г/м3)
Тmin Tmax R s Состояние
почвы
03 14.01.17 340 (С) 50000 м    8/8 600 м кучево-дожд. 
[Cb cap]
-15.1 -17 85 -15  1019.6  -0.2  762  326  -18      38  равномерный
сухой снег
100% 
06 14.01.17 240 (ЮЗ) 10 км  слаб. ливневой снег  10/10 600 м кучево-дожд. 
[Cb cap]
-14.9 -16.8 85 -15  1019.6  762  326           
09 14.01.17 тихо ()   10 км  {ливн. осадки}  10/4 600 м кучево-дожд., средняя 
[Cb cap|As op]
-14.4 -16.1 87 -14  1019.7  0.1  762  325           
12 14.01.17 тихо ()   19000 м  {ливн. осадки}  10/5 600 м кучево-дожд., средняя 
[Cb cap|Ac lent]
-14.7 -16.5 86 -15  1020.9  1.1  763  326           
15 14.01.17 тихо ()   24000 м    10/6 600 м кучево-дожд., средняя 
[Cb cap|Ac As]
-18.6 -20.7 83 -19  1020.5  -0.4  762  331    -14.1  0.0     
18 14.01.17 260 (З) 21000 м    10/6 600 м кучево-дожд., средняя 
[Cb cap|As op]
-17.1 -19 85 -17  1020.4  762  329           
21 14.01.17 250 (З) 50000 м    10/4 600 м кучево-дожд., средняя 
[Cb cap|Ac trans]
-15 -16.8 86 -15  1020.7  -0.1  763  327           
00 15.01.17 тихо ()   50000 м    8/3 600 м кучево-дожд., средняя, верхняя 
[Cb cap|Ac lent|Ci fib]
-21 -23.4 81 -21  1020.5  -0.3  762  334           
03 15.01.17 200 (Ю) 50000 м    8/3 600 м кучево-дожд., средняя, верхняя 
[Cb cap|Ac lent|Ci fib]
-21.5 -24 80 -22  1020.1  -0.3  762  335  -21.5      38  равномерный
сухой снег
100% 
06 15.01.17 360 (С) 20000 м    10/3 600 м кучево-дожд., средняя 
[Cb cap|Ac lent]
-16.9 -18.9 84 -17  1019.9  -0.2  762  329  -21.9         
09 15.01.17 170 (Ю) 20000 м    10/0 средняя, верхняя 
[Ac lent|Ci fib]
-9.2 -10.4 91 -11  1019.9  0.2  762  319           
12 15.01.17 200 (Ю) 50000 м    10/0 средняя 
[Ac lent]
-8.3 -9.7 90 -10  1020.5  0.6  763  318           
15 15.01.17 190 (Ю) 50000 м    10/0 средняя 
[Ac lent]
-7.3 -9.1 87 -9  1020.2  -0.3  762  317    -6.9       
18 15.01.17 190 (Ю) 50000 м    10/0 средняя 
[Ac As]
-6.4 -8.4 86 -8  1020.2  762  315           
21 15.01.17 180 (Ю) 50000 м    10/0 средняя 
[Ac As]
-5.8 -8 84 -8  1020.7  0.5  763  315           
00 16.01.17 210 (ЮЗ) 50000 м    10/0 средняя 
[Ac As]
-6.1 -8.3 84 -9  1021.5  0.8  763  315           
03 16.01.17 190 (Ю) 50000 м    10/0 средняя 
[Ac lent]
-6.4 -8.6 84 -9  1021.4  0.1  763  316  -7.5      38  равномерный
сухой снег
100% 
06 16.01.17 180 (Ю) 10 км    8/0 
-4.6 -7.4 81 -6  1021.5  -0.1  763  314      804     
09 16.01.17 220 (ЮЗ) 4{10}  20000 м    10/0 средняя, верхняя 
[Ac lent|Ci fib]
-4.6 -8.8 72 -8  1021.7  0.3  764  314           
12 16.01.17 230 (ЮЗ) 50000 м    10/0 средняя, верхняя 
[Ac lent|Ci fib]
-6 -9.4 77 -9  1022.5  0.7  764  316           
15 16.01.17 220 (ЮЗ) 50000 м    8/3 600 м кучево-дожд., средняя, верхняя 
[Cb cap|Ac lent|Ci fib]
-6.3 -9.9 76 -10  1022.5  764  316    -4.1       
18 16.01.17 220 (ЮЗ) 50000 м    8/5 600 м кучево-дожд., средняя 
[Cb cap|Ac lent]
-6 -9.9 74 -9  1022.6  0.1  764  316           
21 16.01.17 210 (ЮЗ) 50000 м    9/9 600 м кучево-дожд. 
[Cb cap]
-7.3 -11 75 -10  1022.8  0.1  764  317           
00 17.01.17 220 (ЮЗ) 50000 м    10/6 600 м кучево-дожд., средняя 
[Cb cap|Ac lent]
-8.7 -12.2 76 -12  1023.3  0.4  765  319           
03 17.01.17 230 (ЮЗ) 50000 м    8/3 600 м кучево-дожд., средняя, верхняя 
[Cb cap|Ac lent|Ci fib]
-8.3 -12.2 73 -10  1023.9  0.4  765  319  -8.9      35  равномерный
сухой снег
100% 
Время (UTC), дата Ветер
(°,м/с) 
Видим.   Явления Облачность Т
(°С)
Тd
(°С)
f(%) Тe
(°С)
Pmin
(гПа)
dP
(гПа)
Po
(мм)
O2
(г/м3)
Тmin Tmax R s Состояние
почвы

Для получения пояснительной информации подведите курсор к названию столбца.

ПОГОДА Саран-Пауль - архив

Всё, что Вы хотите узнать о погоде Саран-Пауль - удобно и подробно!

Выберите нужную дату (начиная с 1 января 2015* года) и нажмите кнопку "Найти".
Будут отображены архивные сводки погоды по пункту Саран-Пауль, начиная с указанной даты.


Отображать данные в формате CSV (для использования в таблицах Excel)


Внимание! Наш архив погоды предназначен исключительно для личного некоммерческого использования в познавательных целях. Если Вам необходимы официальные справки о состоянии погоды (для производственных, юридических, коммерческих и т.п. целей), обращайтесь в органы Росгидромета.

*Примечание: данная дата относится к архиву по метеостанциям СССР (Россия, СНГ, Балтия).
Архив по метеостанциям Зарубежной Европы и Азии (кроме Китая) хранится 10 дней, по другим регионам земного шара (Китай, Африка, Америка, Австралия, Океания) - 1 день.

Саран-Пауль - район местоположения метеостанции


Название, широта, долгота, высота метеостанции:
Саран-Пауль 64.3°ш. 60.9°д. 29 м над ур. моря [Российская Федерация]

Дополнительная информация

В oтличие oт бoльшинства пoгoдных сайтoв мы публикуем пoдрoбную метеoинфoрмацию в детальнoм прoфессиoнальнoм фoрмате.

Характеристики температуры и влажнoсти вoздуха измеряются на высoте 2 м в тени вдали oт зданий и деревьев.
Скoрoсть ветра измеряется на высoте 10 м (на урoвне рoста челoвека скoрoсть ветра ниже в 1.5-2 раза). Если метеoстанция нахoдится в гoрoде или в лесу, тo скoрoсть ветра занижена на 2-4 м/с пo сравнению с oткрытым местoм. Скoрoсть ветра над акватoриями крупных рек и oзёр, а также на вершинах хoлмoв на 2-5 м/с выше, чем в oбычных услoвиях.
Атмoсфернoе давление в разных тoчках местнoсти мoжет значительнo oтличаться oт давления на метеoстанции, в зависимoсти oт услoвий рельефа (при пoдъёме на 10 м давление пoнижается примернo на 1 мм рт.ст.).